Weather Roundup
Issued by NWS Chicago, IL

Home | Current Version | Previous Version | Graphics & Text | Print | Product List | Glossary On
Versions: 1 2 3 4 5 6 7 8 9 10 11 12 13 14 15 16 17 18 19 20 21 22 23 24 25 26 27 28 29 30 31 32 33 34 35 36 37 38 39 40 41 42 43 44 45 46 47 48 49 50
000
NZUS59 KLOT 201010
HRRLOT

CHICAGO AREA WEATHER ROUNDUP
NATIONAL WEATHER SERVICE CHICAGO/ROMEOVILLE IL
500 AM CDT SAT SEP 20 2014

NOTE: "FAIR" INDICATES FEW OR NO CLOUDS BELOW 12,000 FEET WITH NO
SIGNIFICANT WEATHER AND/OR OBSTRUCTIONS TO VISIBILITY.

* THESE STATIONS ARE NOT UNDER NWS QUALITY CONTROL. THEY ALSO MAY NOT
  REPORT WEATHER SUCH AS PRECIPITATION OR FOG.

ILZ005-006-012>014-019>023-201100-
NORTHEAST ILLINOIS

CITY           SKY/WX    TMP DP  RH WIND       PRES   REMARKS
OHARE          CLOUDY    64  52  64 SW12      29.92R
MIDWAY         CLOUDY    64  53  67 SW14      29.94R
AURORA         CLOUDY    56  51  84 S5        29.94R
LANSING*       MOCLDY    59  53  80 S10       29.96R
JOLIET*        MOCLDY    59  52  78 S6        29.96R
WAUKEGAN       CLOUDY    64  54  69 SW16G22   29.88S
DUPAGE AIRPORT CLOUDY    60  53  77 S12       29.92S
WHEELING       CLOUDY    66  53  63 SW14G21   29.92S
KANKAKEE*      MOCLDY    56  53  90 S9        29.98R
MORRIS*        MOCLDY    56  55  95 S5        29.95R
LEWIS AIRPORT* MOCLDY    59  53  79 S8        29.95R
NORTHERLY IS     N/A     64  52  64 S8          N/A
$$

WIZ051-052-058>065-066-070>072-201100-
SOUTHEAST WISCONSIN

CITY           SKY/WX    TMP DP  RH WIND       PRES   REMARKS
MILWAUKEE      CLOUDY    66  55  67 SW18G31   29.87R
KENOSHA*       CLOUDY    66  56  70 W16G23    29.90R
RACINE*        CLOUDY    66  55  67 W13G20    29.91R
BURLINGTON     CLOUDY    61  55  82 SW8G17    29.90R
WAUKESHA       LGT RAIN  63  55  77 SW8       29.89F
WEST BEND      CLOUDY    63  55  77 SW10G21   29.83F
$$

INZ001>003-010>013-019-020-201100-
NORTHWEST INDIANA

CITY           SKY/WX    TMP DP  RH WIND       PRES   REMARKS
GARY*          CLEAR     63  52  67 S8        29.95R
MICHIGAN CITY* NOT AVBL
RENSSELAER*    NOT AVBL
VALPARAISO     MOCLDY    56  51  84 S7        29.98R
$$

LMZ740>746-201100-
SOUTHERN LAKE MICHIGAN

STATION/POSITION TIME  SKY/WX   TEMP WIND        PRES    VSBY
                                AIR  DIR/SP/G
                 (UTC)          (F)  (DEG/KT/KT) (MB)    (MI)
HARRISON CRIB    1000            65  200/ 22/ 30   N/A
BURNHAM HARBOR   1000            64  160/  3/ 12   N/A
CALUMET HARBOR   1000            63  200/ 10/ 14 1012.5R
BURNS HARBOR     NOT AVBL
MICHIGAN CITY    1000            62  160/ 16/ 22   N/A
$$

ABBREVIATIONS USED IN REMARKS
   TC - TEMPERATURE IN CELSIUS
  WCI - WIND CHILL INDEX
   HX - HEAT INDEX
  VSB - VISIBILITY
$$


USA.gov is the U.S. government's official web portal to all federal, state and local government web resources and services.